Retour au catalogue

STARLINK-35866

ActifCommunicationsVLEO
NORAD 66878·PAYLOAD·🇺🇸 United States

Lancé Dec 4, 2025 depuis Vandenberg Space Force Base

Loading…

Prochains Passages (prochaines 24 heures)

TLE

FraisSource: CelesTrak SupGP

Époque: Sep 15, 2026, 03:37 UTC

1 66878C 25283A   26258.15118056 -.00050225  00000+0 -14840-2 0  2587
2 66878  53.1569 222.4548 0001430  87.6784 333.3837 15.34412796    14

Suivez STARLINK-35866 en temps réel avec AllMySat

Download on the App Store